This demonstration page uses our WeatherBlox Daily Observations layout. Learn more.

Left ArrowRight Arrow

39.51506, -84.39828

Hourly Observations for July 26, 2015

Temp ( °F °C ) Dew Point ( °F °C ) Humidity (%) Winds ( mph kmh ) Pressure ( in mb ) Visibility ( mi km ) Precip ( " mm )
12:15 am 00:15 Clear 74 23.6 70 21 85 85 N N/A 29.94 1014 10 16 N/A
12:35 am 00:35 Mostly Cloudy 74 23.6 70 21.2 86 86 N N/A 29.94 1014 10 16 N/A
12:55 am 00:55 Partly Cloudy 74 23.6 70 21 85 85 N N/A 29.94 1014 10 16 N/A
1:15 am 01:15 Partly Cloudy 74 23.6 70 21.1 86 86 N N/A 29.94 1014 10 16 N/A
1:35 am 01:35 Clear 74 23.6 70 21.2 86 86 N N/A 29.94 1014 10 16 N/A
1:55 am 01:55 Clear 74 23.6 70 21.3 87 87 N N/A 29.94 1014 7 11 N/A
2:15 am 02:15 Clear 73 22.8 69 20.7 88 88 N N/A 29.91 1013 7 11 N/A
2:35 am 02:35 Clear 72 22.3 68 20 87 87 N N/A 29.94 1014 7 11 N/A
2:55 am 02:55 Clear 70 20.9 66 18.8 88 88 N N/A 29.91 1013 7 11 N/A
3:15 am 03:15 Clear 70 21.2 67 19.2 88 88 N N/A 29.91 1013 7 11 N/A
3:35 am 03:35 Clear with Mist and Fog 69 20.8 66 19 90 90 N N/A 29.94 1014 5 8 N/A
3:55 am 03:55 Clear 69 20.8 66 19 90 90 SW 3 6 29.91 1013 7 11 N/A
4:15 am 04:15 Clear with Mist and Fog 69 20.8 66 19 90 90 N N/A 29.94 1014 5 8 N/A
4:35 am 04:35 Clear with Mist and Fog 70 20.9 66 19.1 90 90 N N/A 29.91 1013 5 8 N/A
4:55 am 04:55 Clear 69 20.8 66 19 90 90 N N/A 29.94 1014 7 11 N/A
5:15 am 05:15 Partly Cloudy 69 20.8 66 19 90 90 N N/A 29.91 1013 7 11 N/A
5:35 am 05:35 Partly Cloudy 70 21.1 67 19.4 90 90 N N/A 29.94 1014 7 11 N/A
5:55 am 05:55 Cloudy with Mist and Fog 71 21.6 67 19.7 89 89 N N/A 29.91 1013 5 8 N/A
6:15 am 06:15 Mostly Cloudy 71 21.6 67 19.7 89 89 N N/A 29.91 1013 7 11 N/A
6:35 am 06:35 Mostly Cloudy 72 22.3 69 20.5 90 90 N N/A 29.91 1013 7 11 N/A
6:55 am 06:55 Partly Cloudy with Mist and Fog 72 22.3 69 20.5 90 90 N N/A 29.91 1013 4 6 N/A
7:15 am 07:15 Partly Cloudy with Mist and Fog 74 23.6 71 21.6 89 89 WSW 3 6 29.94 1014 5 8 N/A
7:35 am 07:35 Sunny with Mist and Fog 74 23.6 71 21.6 89 89 N N/A 29.94 1014 5 8 N/A
7:55 am 07:55 Mostly Cloudy with Mist and Fog 74 23.6 71 21.4 88 88 N N/A 29.94 1014 5 8 N/A
8:15 am 08:15 Mostly Cloudy 74 23.6 70 21.1 86 86 WSW 3 6 29.94 1014 7 11 N/A
8:35 am 08:35 Mostly Cloudy 74 23.6 69 20.8 84 84 WSW 3 6 29.94 1014 7 11 N/A
8:55 am 08:55 Cloudy 74 23.6 69 20.7 84 84 SW 3 6 29.97 1015 10 16 N/A
9:15 am 09:15 Mostly Cloudy 77 25.1 71 21.7 81 81 WSW 5 7 29.97 1015 10 16 N/A
9:35 am 09:35 Mostly Cloudy 77 25.1 71 21.7 81 81 SW 5 7 29.97 1015 10 16 N/A
9:55 am 09:55 Mostly Cloudy 77 25.1 70 21.1 79 79 WSW 6 9 29.97 1015 10 16 N/A
10:15 am 10:15 Mostly Cloudy 78 25.4 71 21.4 79 79 SW 5 7 29.94 1014 10 16 N/A
10:35 am 10:35 Partly Cloudy 80 26.5 72 22.1 77 77 N N/A 29.94 1014 10 16 N/A
10:55 am 10:55 Mostly Cloudy 80 26.5 71 21.9 76 76 SSW 3 6 29.94 1014 10 16 N/A
11:15 am 11:15 Mostly Cloudy 80 26.5 71 21.8 75 75 N N/A 29.94 1014 10 16 N/A
11:35 am 11:35 Mostly Cloudy 81 27.2 73 22.5 76 76 SW 5 7 29.94 1014 10 16 N/A
11:55 am 11:55 Mostly Cloudy 82 28 74 23.2 75 75 W 7 11 29.94 1014 10 16 N/A
12:15 pm 12:15 Mostly Cloudy 82 28 73 22.9 74 74 SW 5 7 29.94 1014 10 16 N/A
12:35 pm 12:35 Cloudy 82 28 73 22.9 74 74 SW 7 11 29.94 1014 7 11 N/A
12:55 pm 12:55 Mostly Cloudy 83 28.5 74 23.4 74 74 SSW 7 11 29.94 1014 10 16 N/A
1:15 pm 13:15 Mostly Cloudy 85 29.2 74 23.5 71 71 SW 5 7 29.94 1014 10 16 N/A
1:35 pm 13:35 Mostly Cloudy 84 28.7 74 23.1 72 72 SW 6 9 29.94 1014 7 11 N/A
1:55 pm 13:55 Mostly Cloudy 85 29.3 74 23.3 70 70 WSW 5 7 29.91 1013 10 16 N/A
2:15 pm 14:15 Sunny 88 30.9 76 24.5 69 69 SW 6 9 29.91 1013 10 16 N/A
2:35 pm 14:35 Partly Cloudy 90 32.1 78 25.4 68 68 SW 9 15 29.91 1013 10 16 N/A
2:55 pm 14:55 Partly Cloudy 88 31.2 76 24.6 68 68 SW 7 11 29.91 1013 10 16 N/A
3:15 pm 15:15 Sunny 87 30.7 76 24.5 70 70 WSW 7 11 29.91 1013 10 16 N/A
3:35 pm 15:35 Sunny 84 28.7 73 22.6 70 70 SW 12 19 29.91 1013 10 16 N/A
3:55 pm 15:55 Sunny with Light Rain 79 26 65 18.2 62 62 SW 13 20 29.94 1014 10 16 N/A
4:15 pm 16:15 Sunny with Light Rain 77 25.1 64 18 65 65 SSW 7 11 29.94 1014 10 16 N/A
4:35 pm 16:35 Sunny 77 25.1 64 17.8 64 64 N N/A 29.94 1014 10 16 N/A
4:55 pm 16:55 Sunny 77 25.1 65 18.3 66 66 N N/A 29.94 1014 10 16 N/A
5:15 pm 17:15 Partly Cloudy with Light Rain 77 25.1 65 18.4 66 66 SSW 3 6 29.97 1015 10 16 N/A
5:35 pm 17:35 Cloudy with Rain 77 25.1 68 20.2 74 74 N N/A 29.94 1014 7 11 N/A
5:55 pm 17:55 Mostly Cloudy with Light Rain 77 25.1 71 21.6 81 81 N N/A 29.94 1014 10 16 N/A
6:15 pm 18:15 Partly Cloudy with Light Rain 77 25.1 71 21.6 81 81 N N/A 29.94 1014 10 16 N/A
6:35 pm 18:35 Sunny with Drizzle 74 23.6 69 20.6 83 83 W 5 7 29.94 1014 10 16 N/A
6:55 pm 18:55 Partly Cloudy 74 23.6 69 20.6 83 83 N N/A 29.94 1014 10 16 N/A
7:15 pm 19:15 Partly Cloudy 74 23.6 69 20.5 83 83 N N/A 29.94 1014 10 16 N/A
7:35 pm 19:35 Sunny 75 23.7 69 20.7 83 83 N N/A 29.91 1013 10 16 N/A
7:55 pm 19:55 Sunny 75 23.7 69 20.7 83 83 N N/A 29.91 1013 10 16 N/A
8:15 pm 20:15 Sunny 74 23.6 70 21.2 86 86 NW 5 7 29.94 1014 7 11 N/A
8:35 pm 20:35 Sunny with Light Rain 74 23.6 70 21.3 87 87 N N/A 29.94 1014 7 11 N/A
8:55 pm 20:55 Sunny 74 23.6 71 21.5 88 88 N N/A 29.94 1014 7 11 N/A
9:15 pm 21:15 Clear with Light Rain 74 23.6 71 21.5 88 88 N N/A 29.94 1014 7 11 N/A
9:35 pm 21:35 Mostly Cloudy with Light Rain 74 23.6 71 21.5 88 88 N N/A 29.94 1014 7 11 N/A
9:55 pm 21:55 Mostly Cloudy with Light Rain 74 23.6 71 21.5 88 88 N N/A 29.94 1014 7 11 N/A
10:15 pm 22:15 Cloudy with Light Rain 74 23.6 71 21.5 88 88 N N/A 29.94 1014 7 11 N/A
10:35 pm 22:35 Partly Cloudy with Mist and Fog 74 23.6 71 21.6 89 89 NW 3 6 29.97 1015 4 6 N/A
10:55 pm 22:55 Partly Cloudy with Mist and Fog 74 23.6 71 21.6 89 89 N N/A 29.94 1014 4 6 N/A
11:15 pm 23:15 Clear with Mist and Fog 74 23.6 71 21.6 89 89 N N/A 29.97 1015 4 6 N/A
11:35 pm 23:35 Partly Cloudy with Mist and Fog 74 23.6 71 21.7 89 89 N N/A 29.94 1014 4 6 N/A
11:55 pm 23:55 Mostly Cloudy with Mist and Fog 74 23.6 71 21.7 89 89 N N/A 29.94 1014 4 6 N/A

Powered by AerisWeather